Wind_Speed
24 24 24 23 24 25 25 24 24 23 23 22 20 20 19 21 22 12 7 13 9 11 6 4 9 14 17 12 16 15 6 11 10 4 17 34 9 16 13 17 15 4 9 22 32
25 24 24 24 24 26 26 25 25 24 22 20 19 18 18 19 17 13 27 15 15 9 7 11 8 11 6 8 9 9 9 11 5 17 17 31 22 24 3 11 10 14 23 32 29
26 25 24 24 24 27 27 25 28 24 20 19 18 16 14 12 5 5 5 17 18 13 12 12 18 12 11 9 10 11 13 13 17 16 17 16 22 19 4 13 12 15 20 23 22
28 27 26 26 28 28 26 30 28 21 20 20 16 12 9 2 3 1 5 6 9 9 8 10 11 14 8 9 10 10 14 13 11 20 7 17 13 20 2 7 17 15 24 24 23
29 29 30 29 29 30 30 33 24 23 22 16 11 7 2 4 9 6 4 4 6 7 13 10 12 10 10 8 12 9 12 13 12 13 22 17 11 12 15 17 19 17 15 22 24
31 31 31 31 31 30 36 29 25 24 13 7 4 4 1 5 6 8 6 5 6 9 11 13 8 10 12 11 12 9 16 14 13 15 14 15 15 8 16 1 18 16 22 23 23
33 33 33 33 32 34 30 25 23 14 7 5 4 2 5 12 2 7 11 8 6 13 9 18 20 8 9 13 10 13 13 14 13 16 20 20 14 10 14 15 18 19 16 19 21
34 34 35 34 32 35 28 23 24 11 5 4 4 3 6 11 7 13 10 11 11 12 21 20 22 10 6 8 9 12 8 11 13 17 21 12 14 16 12 10 9 25 26 22 22
35 35 36 35 33 32 28 31 12 5 3 4 1 4 8 5 5 13 10 12 12 16 16 16 6 5 9 7 8 6 10 14 19 17 14 9 11 10 8 9 8 20 23 27 23
36 36 37 36 34 27 28 21 5 4 4 4 10 5 8 3 4 1 5 11 6 7 5 6 4 4 5 2 8 8 10 12 16 18 19 16 11 11 10 10 7 10 8 20 26
37 37 38 37 32 21 27 8 4 3 5 8 8 5 10 3 7 7 9 5 4 6 5 7 4 8 13 13 17 15 16 17 13 13 14 14 12 12 11 8 9 9 10 16 22
38 38 39 38 24 16 12 5 4 8 9 15 18 17 12 2 6 9 12 4 7 7 8 6 8 15 17 18 16 16 12 11 12 11 9 9 10 11 12 9 8 8 9 7 7
38 38 38 39 15 9 16 12 11 13 4 9 10 8 8 6 7 3 10 7 9 9 10 9 13 14 16 14 10 7 7 9 15 7 8 7 8 9 12 15 14 10 9 7 7
37 37 35 39 7 22 6 16 14 13 3 3 6 6 4 4 6 8 8 1 5 7 11 8 9 11 9 6 7 7 9 13 14 8 4 4 13 7 7 6 7 9 10 10 11
36 36 34 18 17 10 15 19 16 6 5 7 7 5 3 8 6 7 6 2 8 10 7 10 13 12 12 8 5 6 9 8 8 9 4 16 2 8 2 6 6 6 8 9 12
37 35 38 11 15 14 22 21 14 1 4 5 7 6 7 9 11 9 8 7 5 6 9 13 16 13 12 13 2 7 7 9 7 5 4 17 5 6 4 6 6 7 9 3 13
38 35 33 14 6 13 19 9 2 3 3 5 1 1 6 7 11 11 7 4 6 4 5 11 11 8 4 2 5 5 6 5 6 5 6 6 1 6 4 6 7 7 9 10 19
40 35 17 18 9 10 18 3 3 10 11 5 8 11 9 7 8 5 5 4 12 6 2 4 9 20 19 11 6 7 5 4 7 6 10 8 8 8 13 22 18 16 14 16 19
41 25 12 13 4 3 2 2 4 9 8 8 11 9 9 9 5 3 6 6 7 4 4 3 7 18 17 18 11 7 5 9 5 8 6 3 6 7 16 16 15 11 13 15 15
30 12 12 10 11 6 1 5 5 9 5 8 5 7 11 7 4 3 5 5 2 8 8 6 6 8 19 14 10 7 8 4 4 5 6 5 4 3 7 8 6 12 12 9 14
9 4 7 13 8 1 3 5 14 18 4 5 8 9 12 10 9 6 6 6 8 7 8 5 1 8 11 6 13 12 5 5 1 3 2 4 3 7 1 4 9 9 8 4 3
7 3 10 6 1 3 5 7 9 12 8 2 4 8 6 10 8 7 7 5 4 3 2 4 2 4 12 16 18 7 3 3 4 6 3 3 3 7 6 5 1 12 15 13 6
5 5 13 10 3 5 9 15 16 11 5 7 5 8 6 5 5 6 9 13 7 4 4 2 2 5 10 9 4 7 10 9 2 1 5 5 6 4 9 11 8 10 14 13 9
4 4 2 4 6 8 10 9 13 15 6 4 6 9 9 8 7 4 12 12 11 5 8 6 5 6 7 10 12 15 14 13 10 5 6 7 9 6 6 8 7 7 8 10 11
3 4 6 4 7 13 11 11 13 14 15 5 4 8 8 7 8 9 9 9 12 8 4 3 2 6 11 15 15 18 19 18 16 13 11 7 6 5 6 5 5 6 5 7 6
3 4 6 8 9 11 11 8 13 14 11 13 8 7 8 7 3 7 8 7 3 9 5 6 5 6 8 12 16 18 18 17 17 6 7 11 2 7 6 3 5 6 6 8 7
9 12 4 6 8 9 10 12 14 12 9 7 11 10 6 9 8 6 7 7 8 6 7 5 5 5 12 10 12 11 13 11 9 8 3 4 3 4 4 12 7 10 9 6 4
Wind_Direction
352 349 348 346 346 346 341 338 336 332 331 326 324 323 317 315 314 302 243 241 263 246 246 239 199 213 248 240 239 248 113 185 197 29 330 305 299 303 131 100 55 79 119 149 154
351 348 346 344 343 342 340 337 335 331 326 323 321 319 313 316 316 254 269 248 249 245 220 218 218 214 227 249 244 227 244 213 161 182 183 245 287 296 179 113 103 91 127 142 153
352 350 346 343 342 340 338 338 334 328 324 320 318 313 310 323 286 238 304 227 232 249 255 240 239 231 229 240 259 267 270 153 205 198 204 234 250 270 330 160 159 135 141 148 157
353 351 348 346 343 341 339 336 331 329 322 317 312 305 304 336 284 197 141 181 218 229 241 259 257 260 273 261 263 273 278 285 192 214 245 251 268 265 198 197 168 169 153 158 161
354 351 347 346 343 341 339 335 333 328 320 314 304 291 288 224 253 219 183 193 188 193 225 239 259 255 265 274 290 286 298 319 324 209 211 241 266 304 313 152 169 164 167 169 162
352 349 347 345 344 340 336 335 332 327 323 315 292 290 229 251 206 174 189 202 211 202 222 242 263 269 272 278 285 302 306 308 313 292 278 269 266 272 286 198 183 185 168 171 167
352 349 347 345 343 339 335 333 334 328 324 304 292 243 263 247 220 183 192 205 229 222 250 255 263 288 299 303 297 311 314 313 309 304 299 288 295 255 236 262 171 190 165 172 174
351 349 348 346 343 338 332 332 328 313 300 299 321 150 246 255 283 262 244 248 212 227 244 259 291 301 289 295 307 302 312 301 276 271 272 268 271 273 229 220 249 166 181 173 182
350 349 346 345 342 337 330 333 312 306 286 292 287 216 278 209 249 238 244 247 247 212 237 268 316 322 333 319 322 314 285 275 281 273 273 268 276 287 291 215 169 168 177 179 184
350 348 345 344 342 336 334 342 317 268 305 274 271 283 278 261 151 324 254 227 256 271 254 218 245 249 285 270 263 263 276 288 298 304 309 305 303 310 317 304 200 184 192 172 193
349 348 345 343 342 337 343 8 357 28 248 247 286 242 302 10 269 215 235 208 251 270 274 261 189 230 234 231 241 254 262 273 286 297 301 297 294 297 299 311 306 270 191 203 189
348 347 344 342 339 336 341 22 21 270 300 281 266 271 267 247 277 215 175 207 195 234 239 262 240 237 239 251 251 249 260 276 277 280 285 298 299 300 299 285 271 268 279 215 217
346 345 344 341 334 0 326 23 336 340 272 285 231 230 245 152 256 226 157 217 243 232 247 222 245 254 249 244 261 279 302 296 299 271 301 316 309 286 281 286 284 287 285 264 222
342 342 343 341 343 332 19 348 341 331 309 213 184 233 229 217 257 232 183 267 303 289 284 268 292 291 292 306 300 295 293 322 321 358 290 320 293 290 270 329 4 346 360 345 328
337 338 337 342 312 314 333 332 325 308 12 178 128 136 235 200 320 211 137 261 266 270 308 280 303 303 307 292 306 286 319 317 304 296 320 286 269 280 1 315 287 309 302 307 309
332 333 331 329 305 290 320 317 303 355 254 161 154 197 199 229 242 161 185 196 254 288 276 271 269 259 244 260 263 260 270 285 285 269 300 267 172 270 298 266 282 276 284 322 356
330 327 319 291 243 325 331 309 340 236 195 122 29 343 302 303 227 193 215 175 218 173 283 312 304 290 306 261 342 304 2 324 336 350 267 321 322 226 266 282 235 298 339 8 7
328 327 317 284 279 310 311 325 254 289 4 34 22 339 298 267 277 306 258 235 284 172 52 345 319 25 339 324 261 274 187 188 276 283 284 316 279 15 28 50 46 39 12 7 10
331 330 278 265 283 281 329 276 262 350 23 3 331 308 289 262 142 329 297 258 268 93 124 358 300 335 327 320 321 298 301 230 266 283 290 255 337 17 13 23 11 24 40 3 355
331 313 279 209 192 221 337 264 305 304 39 17 314 293 318 352 302 231 311 342 83 82 80 3 328 316 311 321 311 346 299 4 335 339 310 342 107 244 335 349 327 2 355 7 342
322 291 139 134 163 198 244 263 311 301 96 27 335 324 329 329 333 329 320 354 31 45 52 0 302 310 329 325 326 328 343 3 48 102 229 319 312 139 271 337 326 324 307 354 325
299 282 160 183 257 228 237 259 275 277 341 283 227 282 274 294 316 327 321 351 75 86 14 67 308 312 303 301 291 294 48 98 112 289 238 188 262 139 117 55 327 304 315 335 24
302 278 281 195 254 278 286 303 310 277 266 277 289 300 299 296 325 315 308 320 339 32 106 96 327 331 321 318 323 44 337 327 234 91 226 253 264 137 51 31 25 1 355 346 356
289 295 225 170 235 262 284 277 299 312 280 243 327 323 328 325 309 277 285 286 310 325 146 135 186 200 254 255 282 308 322 319 309 297 276 229 263 31 8 47 313 322 344 15 11
246 264 8 310 337 335 321 324 323 324 322 307 197 280 256 271 284 283 299 330 333 146 5 52 330 311 300 306 314 311 307 298 288 289 288 9 74 4 339 317 283 291 285 50 51
288 347 339 305 308 312 297 277 283 284 285 299 304 248 243 266 328 13 26 10 346 332 12 334 300 298 289 289 288 295 298 299 291 9 35 85 110 244 256 253 315 319 336 321 294
329 341 325 302 299 291 288 297 292 285 301 304 325 341 316 22 29 7 336 303 288 284 289 285 276 287 276 280 285 297 344 10 72 34 359 65 283 204 296 71 35 356 352 10 37
Height
805 802 798 795 791 788 785 782 778 774 771 768 765 763 760 757 755 752 747 738 737 739 741 743 746 751 751 750 743 740 805 814 802 800 785 723 741 713 692 707 716 711 719 728 735
804 800 796 793 789 786 783 779 776 772 768 766 763 761 758 755 752 746 732 734 736 737 739 740 742 745 751 743 741 751 768 791 777 769 761 737 733 724 713 717 717 717 713 728 737
802 799 795 791 787 783 780 776 772 768 765 763 761 758 756 755 753 732 728 730 734 736 737 737 736 737 746 738 739 739 755 745 746 741 730 732 729 718 714 720 713 721 721 726 735
801 797 793 789 784 780 776 772 768 765 762 760 757 756 755 755 765 729 729 730 732 734 736 735 733 740 746 750 731 748 729 723 727 734 735 733 721 727 707 706 702 699 704 714 725
800 795 790 786 781 777 773 768 764 761 758 756 754 754 754 755 742 731 730 730 731 732 734 734 736 736 748 738 732 737 729 720 716 724 729 718 717 709 703 702 696 699 709 713 715
799 794 788 783 778 773 768 764 760 757 755 753 753 753 754 759 727 728 729 730 731 732 731 732 730 724 732 734 737 726 724 723 718 716 711 716 712 707 698 685 703 704 701 708 714
798 792 787 781 775 770 764 760 758 755 754 752 752 753 752 742 727 726 726 727 729 730 730 727 725 728 727 736 720 723 737 728 724 717 714 702 719 714 690 681 697 703 708 707 712
797 791 785 779 773 767 761 757 755 753 753 752 752 753 751 727 726 726 726 725 726 728 729 726 723 725 728 722 728 740 741 760 729 716 705 708 739 698 679 684 684 695 700 703 710
797 790 784 778 772 765 758 754 751 751 752 752 753 752 744 725 724 723 724 724 724 724 725 724 724 733 734 752 764 754 772 759 737 708 708 711 727 691 675 678 688 688 691 692 700
797 791 784 777 770 763 756 750 749 751 752 753 752 758 733 725 720 721 722 723 723 723 726 728 736 752 754 765 793 775 766 749 744 717 705 713 714 696 685 686 680 686 681 687 685
796 789 782 775 769 764 756 750 754 756 752 745 740 735 723 719 719 720 721 722 724 728 749 734 758 772 756 745 740 741 746 746 729 710 716 719 713 703 689 686 688 681 681 676 677
795 788 781 773 767 764 763 761 764 764 762 738 731 726 720 719 725 717 718 730 734 750 737 749 764 735 725 726 730 733 741 743 724 709 712 719 719 701 690 687 682 680 677 673 671
795 789 781 773 767 765 765 763 762 759 765 734 722 721 718 719 724 717 717 722 735 744 740 752 735 712 717 724 729 732 741 737 735 713 707 716 727 717 692 678 672 671 671 666 668
796 790 784 774 771 768 765 763 761 759 781 741 730 720 716 715 729 708 710 718 728 741 733 732 713 717 720 725 723 751 719 718 722 740 763 715 758 729 704 701 691 684 679 674 670
796 790 785 784 778 772 767 763 760 759 797 733 725 711 709 726 718 715 708 715 736 735 735 742 729 728 729 723 712 733 714 722 722 736 741 732 756 733 701 708 699 687 678 674 668
795 790 784 782 779 769 765 762 760 788 791 736 719 725 729 721 718 711 713 710 711 727 726 728 705 711 714 703 703 704 718 725 727 739 772 732 741 739 719 705 696 682 674 669 670
791 785 782 779 773 769 765 760 789 795 722 742 734 723 728 728 723 719 723 732 748 761 756 732 717 693 699 714 705 712 742 783 786 782 774 725 737 730 701 688 689 686 681 678 677
788 781 775 771 769 769 767 777 796 749 743 720 730 731 740 725 724 718 726 739 721 726 748 763 766 724 708 719 726 728 734 779 790 786 761 725 742 746 714 708 709 702 699 686 682
785 775 772 765 767 769 775 794 772 752 735 742 740 746 739 720 725 727 731 735 722 722 753 763 756 717 714 707 713 727 744 721 750 739 756 738 721 706 713 711 710 707 698 694 692
788 779 766 761 766 768 781 786 763 737 732 741 763 744 755 740 740 734 736 716 720 718 724 745 772 735 718 708 704 719 707 745 751 777 780 752 752 757 738 726 719 707 701 699 691
791 782 761 763 765 773 792 773 754 732 731 749 756 758 752 750 742 743 740 726 721 725 727 736 755 756 734 738 742 732 738 735 739 754 779 781 761 733 731 728 724 718 707 702 701
794 790 762 762 778 773 777 761 745 737 731 738 740 747 751 747 750 747 745 734 720 723 741 739 755 776 761 730 717 720 728 737 771 769 760 763 761 719 718 720 723 720 713 706 709
799 783 761 762 786 776 761 754 743 733 737 741 742 738 735 747 760 746 740 722 720 726 742 738 768 789 773 748 722 733 728 729 738 745 760 769 759 716 717 709 720 724 711 705 710
802 788 762 759 758 768 770 762 753 731 733 734 742 740 747 754 744 751 746 727 718 719 729 735 758 774 788 772 750 747 735 728 736 755 751 747 730 728 728 721 724 724 717 701 706
801 784 775 779 774 770 765 763 761 758 738 735 743 747 751 763 757 754 741 736 727 734 735 744 764 758 754 744 740 740 736 730 735 729 738 743 744 738 733 733 733 727 719 716 710
804 793 779 781 775 773 767 766 762 754 751 749 750 740 741 756 751 759 752 753 748 740 745 746 768 757 763 745 741 741 729 723 719 724 728 730 745 734 728 726 730 726 720 717 719
798 793 789 784 779 777 769 760 752 745 741 737 741 745 746 745 740 741 741 743 743 749 754 756 761 767 769 750 745 759 744 736 742 741 736 748 738 727 725 726 731 730 722 716 714